Presure
240 244 196 202 218 142 120 162 143 132 118 126 94 122 122 99 114 117 123 130 114 116 113 117 105 109 113 109 118 114 100 102 111 124 126 97 78 108 99 101 102 103 107 104 109
244 242 247 247 189 222 164 146 146 158 150 129 118 133 111 114 125 115 109 98 121 115 124 120 115 122 126 118 101 110 116 118 116 133 128 103 97 109 108 96 115 114 105 96 107
248 239 244 249 148 237 179 229 167 131 188 144 140 136 107 89 140 115 113 119 118 119 117 122 121 119 123 115 115 117 103 109 128 127 127 108 96 97 98 102 68 106 97 97 97
273 266 259 253 244 251 241 234 233 192 168 148 187 191 149 137 141 108 132 119 115 119 109 81 116 121 107 117 114 127 118 123 128 128 127 66 112 85 88 82 91 79 68 103 102
240 253 274 266 263 257 258 246 228 232 225 236 233 160 161 151 139 163 126 133 91 125 136 106 97 123 102 115 110 114 110 115 125 130 118 115 105 107 94 106 109 113 121 110 107
233 229 236 245 267 288 268 261 257 253 238 212 240 254 219 130 136 149 119 137 138 134 123 125 135 123 129 104 128 120 110 105 115 121 126 127 127 104 113 89 104 110 101 97 104
241 243 243 247 244 244 257 283 303 272 255 254 230 244 241 216 172 148 170 187 150 147 127 157 118 126 135 127 124 129 107 124 70 128 129 122 130 122 66 66 108 123 130 132 125
227 231 259 237 246 259 266 256 259 282 306 275 265 242 246 233 177 203 151 193 172 148 129 168 126 151 125 125 144 119 121 124 120 120 118 100 117 99 109 110 127 123 123 108 101
235 297 342 389 244 257 299 263 275 269 266 294 291 267 244 233 227 225 227 140 174 120 161 164 142 126 129 121 126 143 131 127 119 136 128 130 109 92 107 101 117 124 114 125 104
238 270 354 377 363 361 407 261 372 315 279 267 280 298 262 248 238 230 224 231 202 229 176 174 181 159 138 133 140 162 125 144 122 62 109 71 76 146 136 134 134 122 107 103 107
287 304 362 360 348 400 411 453 448 258 258 281 295 263 289 282 258 229 236 231 233 230 223 203 137 162 161 157 164 141 133 139 135 124 121 122 149 161 156 125 122 126 124 110 108
279 293 374 352 345 390 398 515 556 589 565 264 274 286 254 278 285 262 249 234 224 229 227 222 220 204 197 166 179 173 164 160 137 131 137 127 128 120 119 143 132 124 157 147 140
269 286 352 344 363 372 473 494 494 491 473 503 258 271 275 254 259 282 261 244 226 235 233 228 222 216 131 206 213 152 183 173 170 176 146 163 155 137 170 166 159 169 141 156 115
256 283 314 339 315 366 459 474 456 466 451 450 460 517 269 275 253 251 278 268 252 228 231 236 221 224 190 207 211 80 203 188 180 177 179 100 160 170 141 141 142 151 156 81 145
255 278 317 346 324 358 396 458 449 471 446 431 438 478 256 267 268 267 246 269 266 252 245 249 235 236 221 222 220 216 208 160 189 188 190 188 207 177 110 165 169 132 164 153 156
252 272 306 334 330 357 356 455 443 430 426 407 432 444 443 436 261 267 276 243 251 267 258 242 241 240 232 154 195 214 217 212 212 205 215 201 83 168 107 176 168 171 163 167 168
240 273 268 309 339 323 342 398 450 438 436 418 417 432 435 430 334 251 265 261 244 248 268 257 241 231 237 222 215 222 216 219 212 214 144 69 197 185 179 179 169 166 158 143 124
237 244 263 276 321 330 356 331 457 450 425 436 413 408 422 424 420 258 252 263 263 257 236 257 255 254 233 227 224 215 219 197 220 213 204 212 169 88 115 188 177 80 152 148 187
232 234 247 256 277 334 320 345 336 406 448 431 429 418 408 416 414 250 246 257 254 255 255 252 245 251 254 251 244 231 223 206 214 228 226 170 82 181 78 85 82 86 163 142 196
222 235 238 252 260 290 336 316 340 334 411 492 471 453 429 415 406 403 400 245 235 245 255 264 250 276 262 235 229 241 64 224 215 226 227 199 73 216 199 154 149 179 195 205 200
217 212 231 258 247 269 282 334 311 339 325 355 470 456 463 436 421 418 407 412 309 240 238 251 257 256 251 234 236 247 244 236 119 124 230 74 223 216 208 157 203 220 219 211 196
213 232 233 237 254 255 270 280 336 310 335 332 342 456 473 462 461 427 409 378 395 363 303 241 243 82 252 308 266 253 242 242 238 230 225 76 63 77 62 79 87 202 207 219 201
228 217 211 225 249 252 254 267 279 328 312 335 336 332 350 454 465 456 449 417 397 380 364 251 255 241 255 247 299 257 248 241 239 236 231 236 233 230 213 206 169 215 197 115 110
224 212 219 228 253 254 253 248 266 278 324 307 327 333 323 333 407 460 458 460 421 413 372 379 310 253 238 242 248 291 259 248 245 241 230 233 232 234 232 190 227 216 216 217 172
202 220 218 240 228 258 254 259 262 266 276 320 304 330 314 323 320 343 415 452 462 429 412 412 373 325 282 247 255 247 280 276 254 248 245 234 227 222 122 213 233 229 225 219 218
207 223 212 232 216 251 240 260 257 265 264 279 315 300 339 310 364 310 334 367 410 465 467 418 405 406 311 296 282 251 251 254 280 273 259 251 249 238 226 153 233 241 238 233 219
196 214 226 224 227 228 250 258 246 251 269 262 292 312 296 335 309 340 300 316 341 378 393 418 460 434 426 394 308 297 182 238 239 251 273 280 283 128 176 253 246 133 140 222 234
Wind_Speed
78 78 88 90 97 87 83 110 92 85 81 80 53 80 77 54 73 73 77 81 67 63 63 63 55 57 57 55 54 52 51 49 51 44 35 44 23 52 56 52 47 42 40 36 36
76 78 80 85 96 99 98 99 100 103 97 86 79 84 77 78 80 78 70 54 73 68 71 69 65 63 61 58 54 54 58 66 58 53 37 40 57 53 53 56 47 45 41 36 40
77 78 83 86 94 96 98 105 110 92 110 91 88 87 70 54 85 82 79 78 75 74 72 73 71 65 65 61 62 62 61 59 69 55 46 43 54 63 66 60 22 48 43 44 42
64 76 84 88 91 95 101 105 107 106 112 96 120 118 95 87 92 79 89 87 76 78 64 33 69 72 58 66 63 67 70 72 75 64 54 8 50 53 50 19 27 21 27 46 48
61 64 68 80 90 95 100 104 108 109 111 109 109 108 105 96 99 110 93 93 54 85 86 63 45 78 47 69 61 69 67 69 79 68 57 52 51 59 69 61 62 55 54 49 52
63 68 71 74 77 85 98 101 105 109 113 119 109 107 119 93 108 102 88 94 93 91 78 86 86 82 81 54 76 77 67 59 72 76 69 67 61 54 82 50 61 60 48 43 49
59 64 69 74 80 82 84 90 96 107 110 110 114 110 113 116 114 99 118 122 104 96 92 99 69 88 82 83 80 79 71 79 35 83 77 71 66 66 17 26 54 66 68 67 61
63 66 66 76 76 79 83 88 89 93 98 110 111 114 110 114 117 125 104 125 116 103 94 110 86 96 85 86 85 81 81 80 93 93 82 55 73 61 66 59 64 69 69 57 46
58 58 58 55 76 79 80 86 90 90 92 97 106 108 110 117 120 121 120 71 123 68 111 109 96 93 77 80 89 83 82 91 66 95 88 82 76 52 55 52 63 67 66 71 61
57 57 56 50 55 62 57 83 82 89 94 96 97 100 111 118 121 123 123 120 127 117 124 118 123 106 93 91 88 107 93 99 83 28 73 41 22 92 81 72 69 65 66 65 68
61 60 56 50 51 48 49 48 49 88 91 97 97 95 104 113 117 122 121 122 122 121 122 131 96 102 111 111 118 95 94 92 97 103 97 92 92 101 97 74 70 69 71 78 79
64 61 55 52 51 48 49 39 23 14 8 93 95 98 100 102 108 118 119 124 125 121 124 128 122 111 125 117 120 117 109 104 102 102 107 92 89 81 73 89 78 70 80 79 84
65 63 60 55 53 49 41 31 16 9 19 15 92 100 102 99 102 112 118 122 126 125 124 125 111 125 72 125 118 73 122 121 123 124 113 119 101 89 105 100 93 89 79 86 92
66 68 68 56 52 52 35 27 19 13 14 18 27 14 103 102 105 106 110 118 121 126 126 123 120 121 105 115 121 23 119 128 127 125 123 39 104 107 89 85 84 91 91 25 85
67 68 70 57 56 52 55 28 22 13 10 19 26 13 97 103 104 108 107 109 116 124 124 115 116 119 122 113 120 114 121 92 132 131 132 124 114 107 65 101 101 97 105 99 100
68 70 74 64 59 55 52 27 22 13 11 19 19 17 28 49 105 104 106 107 110 114 118 118 117 119 115 76 107 121 121 125 126 130 123 112 40 103 47 102 107 108 111 110 107
65 73 71 76 60 58 50 42 22 17 11 14 17 14 22 41 80 101 106 106 108 109 110 118 121 118 118 121 122 120 122 124 127 126 60 20 125 98 91 109 110 112 96 94 85
64 68 72 73 72 60 52 46 26 22 14 10 19 21 21 32 47 102 102 104 105 109 106 113 116 119 122 121 121 123 123 112 124 124 113 126 82 17 41 110 116 9 65 72 111
64 63 68 69 74 65 61 49 44 33 22 16 9 19 25 27 37 91 97 104 104 104 108 110 112 113 115 119 123 125 126 115 127 124 127 92 42 95 25 23 16 10 78 61 111
62 63 66 68 70 77 60 59 47 41 31 17 17 14 22 28 36 45 62 99 97 99 103 108 110 106 116 112 113 120 18 128 130 128 129 106 22 105 105 56 62 118 110 109 111
60 57 62 71 63 71 71 55 55 47 38 39 20 17 12 24 31 34 43 53 97 101 101 101 107 111 113 114 116 122 124 126 63 61 128 26 119 110 110 74 111 103 103 107 113
56 63 62 65 70 65 69 69 52 53 45 38 34 25 16 12 15 30 38 59 61 85 102 101 101 19 112 109 123 125 124 125 128 130 129 32 9 9 6 11 13 102 97 102 103
59 57 55 60 69 66 64 67 68 53 50 40 37 28 33 22 13 13 27 37 48 65 80 99 102 103 109 111 112 127 126 126 128 128 129 130 123 118 115 109 70 106 100 26 35
58 52 57 62 72 68 64 58 65 67 51 48 38 34 26 25 27 14 12 19 35 39 65 70 98 102 105 109 112 113 130 128 129 128 127 127 122 120 116 89 112 109 108 104 80
55 52 54 69 63 74 70 66 64 61 64 47 47 38 32 27 20 25 21 12 14 32 38 41 70 98 106 109 112 112 114 126 130 130 131 122 124 118 39 104 113 109 107 106 107
56 60 49 65 54 74 63 72 64 63 59 62 48 43 38 29 31 21 22 25 20 11 16 39 40 48 100 109 112 110 111 111 116 129 132 130 131 120 121 69 122 117 112 113 110
56 63 61 59 56 61 71 72 58 57 60 56 57 45 42 33 28 32 19 17 21 22 19 14 15 37 45 57 104 109 68 108 109 113 119 123 122 47 70 129 129 57 54 102 113
Wind_Direction
247 246 247 244 241 247 248 253 248 242 247 244 245 245 246 254 251 250 250 251 252 251 250 250 250 247 247 250 250 247 258 259 251 240 227 248 259 255 260 260 262 265 269 267 264
252 249 248 247 246 240 250 248 245 251 248 242 244 241 251 251 246 250 256 251 252 251 250 249 249 250 250 249 258 250 254 256 253 254 235 225 251 259 256 265 256 258 266 280 271
252 251 251 249 247 241 246 238 249 243 237 243 251 242 253 246 245 249 254 252 252 249 251 250 250 249 250 249 250 252 257 260 260 254 244 226 243 257 264 261 269 260 273 280 283
258 256 254 250 246 246 240 238 239 243 248 248 239 239 246 242 245 249 243 248 250 247 251 246 250 249 251 250 250 251 254 257 258 257 252 254 239 270 270 253 258 263 268 269 274
260 259 257 254 252 250 246 241 237 237 238 241 242 249 239 247 244 241 241 244 244 246 245 245 238 249 251 250 254 251 255 257 259 259 255 245 233 248 263 258 264 263 265 268 270
264 261 260 258 256 253 250 247 244 241 238 239 239 239 237 240 244 244 245 245 246 244 246 246 249 249 248 253 248 250 255 260 261 260 256 256 252 248 255 262 263 265 265 268 267
274 270 266 263 259 256 255 251 248 246 243 241 235 237 236 238 240 245 247 241 246 245 241 247 247 247 244 247 248 249 258 253 266 256 255 254 255 250 257 269 262 263 264 265 267
272 270 272 263 263 261 257 253 250 247 244 243 242 235 236 235 246 239 239 238 245 244 240 248 243 250 249 247 248 249 251 251 255 254 256 252 254 254 261 261 255 262 264 268 266
288 299 306 293 263 260 254 255 251 247 245 242 240 240 235 235 236 236 238 234 244 243 246 244 241 241 248 246 245 249 245 249 251 254 254 254 257 245 257 260 258 258 265 264 265
296 302 315 301 288 278 279 253 255 249 244 241 239 236 236 234 234 236 236 237 239 237 246 247 246 245 240 244 248 249 247 248 246 258 259 238 244 256 257 255 252 252 264 273 273
328 328 326 313 302 301 301 293 274 246 245 239 235 236 234 234 235 235 235 236 237 235 237 242 242 246 248 247 247 239 240 244 247 254 257 254 253 252 257 258 254 252 255 267 271
334 335 334 324 319 318 312 313 323 330 270 240 235 232 235 233 232 234 234 235 236 237 237 238 240 241 240 246 247 249 252 252 248 252 254 249 249 258 261 259 254 252 253 256 259
338 340 343 337 333 327 329 327 337 318 256 290 237 233 231 232 232 230 232 234 237 237 237 238 237 238 241 240 238 240 245 247 248 247 251 253 250 251 255 256 261 257 253 257 254
339 345 349 344 339 340 338 331 327 300 267 261 256 290 231 229 230 231 230 231 234 236 237 236 236 238 241 242 242 243 242 245 248 250 250 232 253 253 254 256 258 263 256 258 258
344 350 355 351 348 346 351 333 338 352 275 261 259 266 232 228 228 229 230 231 230 234 235 236 235 237 239 241 242 240 241 242 245 246 247 250 247 252 249 258 258 254 258 257 256
349 352 359 358 354 353 355 329 338 338 299 266 268 253 237 232 229 228 227 231 232 231 234 235 234 236 236 239 241 241 241 242 243 244 244 247 218 250 252 254 255 255 258 258 257
349 358 357 4 359 358 355 360 334 337 318 268 268 258 239 235 228 230 229 228 232 233 231 233 234 234 235 237 239 241 243 244 245 246 249 244 249 247 248 254 255 256 256 254 255
351 353 359 2 7 1 3 357 349 342 335 319 259 255 245 241 231 230 232 229 229 231 234 232 233 234 235 237 238 240 241 242 246 247 246 245 242 264 249 247 252 266 251 252 253
351 353 357 359 6 4 3 4 6 2 336 322 295 253 253 244 234 232 232 231 231 230 232 234 235 235 234 235 238 239 241 243 245 245 245 238 243 244 289 259 287 278 247 253 251
346 355 355 359 2 10 4 5 5 6 4 344 320 286 246 243 234 230 229 233 235 233 232 233 234 235 234 238 239 238 232 241 244 244 246 246 273 245 245 241 237 245 248 246 248
345 342 355 2 359 7 11 6 6 4 2 14 0 342 313 256 250 240 231 232 228 236 236 233 233 235 236 237 239 238 238 239 246 243 245 246 245 243 242 243 243 240 241 244 250
344 356 356 358 2 2 8 12 4 6 2 2 13 14 358 315 276 251 243 235 233 230 228 236 235 224 236 234 232 235 238 239 240 243 245 247 210 202 274 288 259 245 242 240 243
353 346 342 352 0 1 2 9 11 3 4 359 1 6 14 13 341 294 252 252 241 236 232 234 234 235 236 237 235 234 236 238 240 242 245 247 246 245 245 245 247 246 246 253 238
350 343 348 355 0 2 1 359 9 9 2 359 353 359 358 8 8 353 305 263 249 250 238 235 231 234 237 238 238 236 235 238 240 241 244 247 249 250 248 246 245 245 245 246 255
330 346 349 357 354 359 0 1 3 8 7 359 357 351 352 349 345 0 359 336 281 249 254 247 236 231 233 238 237 238 237 238 240 241 243 244 246 249 254 253 248 244 245 245 246
330 346 344 353 346 359 352 359 358 3 6 5 354 352 352 345 347 331 348 352 347 327 272 252 249 249 232 233 234 238 240 241 241 242 243 244 245 245 247 245 252 251 246 246 244
319 335 348 352 349 351 356 356 355 355 2 4 0 351 346 353 335 341 308 319 335 336 329 313 280 259 255 250 236 236 244 245 246 245 244 244 244 239 248 248 249 250 250 250 247